User: anonymous   Login
Location: Unspecified
(0.0000°N, 0.0000°E)
Time: 13:33:40
(UTC+00:00)
Language:

GOMX4-B - Orbit

View from above orbital plane
View from above orbital plane
View from above satellite
View from above satellite

Ground track
Ground track

The orbit data is extracted from the following two-line orbital elements,

1 43196U 18015E   18347.88536496 -.00000014 +00000-0 +23596-5 0  9996
2 43196 097.3687 113.4103 0017755 245.0836 114.8555 15.23776031047893
Epoch (UTC): 13 December 2018 21:14:55
Eccentricity: 0.0017755
inclination: 97.3687°
perigee height: 482 km
apogee height: 506 km
right ascension of ascending node: 113.4103°
argument of perigee: 245.0836°
revolutions per day: 15.23776031
mean anomaly at epoch: 114.8555°
orbit number at epoch: 4789

The dashed part of the orbit path shows where the satellite is in the earth's shadow,  

DLR